Preview of NWS' New Version of Forecast
This preview is not operational and should not be used for support decisions.

Regional Weather Roundup (RWR)

Issued by National Weather Service (NWS)

                            
000
ASUS46 KSEW 161110
RWRWA 

WASHINGTON REGIONAL WEATHER ROUNDUP
NATIONAL WEATHER SERVICE SEATTLE WA
300 AM PST SAT FEB 16 2019

NOTE:"FAIR" INDICATES FEW OR NO CLOUDS BELOW 12,000 FEET WITH NO 
SIGNIFICANT WEATHER AND/OR OBSTRUCTIONS TO VISIBILITY.

WAZ507-509-555>559-161200-
SEATTLE, TACOMA, EVERETT, AND VICINITY
  
CITY           SKY/WX    TMP DP  RH WIND       PRES   REMARKS
EVERETT        CLOUDY    37  34  89 CALM      29.74R                  
BOEING FIELD   CLOUDY    36  33  89 CALM      29.75R                  
RENTON         CLOUDY    35  33  92 E3        29.75R                  
SEATAC AIRPORT MOCLDY    37  34  89 CALM      29.74R                  
JBLM-MCCHORD   CLOUDY    36  36 100 S3        29.74S FOG              
PUYALLUP       DRIZZLE   36  36 100 CALM      29.74R                  
BREMERTON      MOCLDY    32  30  93 CALM      29.74S FOG              
JBLM-FT LEWIS  LGT RAIN  36 N/A N/A CALM      29.74R                  
TACOMA NARROWS LGT RAIN  38  37  97 CALM      29.75R                  
$$
 
WAZ001-503-506-510-514-515-161200-
NORTH INTERIOR
  
CITY           SKY/WX    TMP DP  RH WIND       PRES   REMARKS
BELLINGHAM     CLOUDY    33  29  85 W3        29.75R                  
FRIDAY HARBOR  CLOUDY    36  34  92 CALM      29.76R                  
EASTSOUND      MOCLDY    34  34 100 CALM      29.75S FOG              
PORT ANGELES   CLOUDY    35  32  88 SW7       29.75R                  
EDIZ HOOK      CLOUDY    37  35  91 CALM      29.75S                  
PORT TOWNSEND  MIX PCPN  30  30 100 CALM      29.75R                  
NAS WHIDBEY    CLOUDY    40  34  79 CALM      29.79R                  
ARLINGTON      CLOUDY    30  29  96 CALM      29.76R                  
BURLINGTON       N/A    N/A N/A N/A MISG        N/A                   
$$
 
WAZ020-022-039-040-504-511-512-161200-
SOUTHWEST INTERIOR
  
CITY           SKY/WX    TMP DP  RH WIND       PRES   REMARKS
SHELTON        CLOUDY    35  32  88 NW3       29.73R FOG              
OLYMPIA        LGT RAIN  36  35  96 W3        29.74S FOG              
CHEHALIS       LGT RAIN  39  39 100 CALM      29.74S                  
KELSO          LGT RAIN  40  39  97 CALM      29.75R                  
VANCOUVER      CLOUDY    38  37  97 E6        29.74S FOG              
SCAPPOOSE, OR  CLOUDY    42  38  85 SE3       29.74R                  
PORTLAND, OR   LGT RAIN  38  37  97 E10       29.75R FOG              
$$
 
WAZ021-516-517-161200-
WASHINGTON COAST
  
CITY           SKY/WX    TMP DP  RH WIND       PRES   REMARKS
FORKS          MOCLDY    31  29  92 CALM      29.75R                  
HOQUIAM        CLOUDY    39  38  96 E3        29.74R                  
ASTORIA, OR    CLOUDY    40  39  97 CALM      29.74R                  
$$
 
WAZ019-023-024-040-567>569-161200-
CASCADE MOUNTAINS AND COLUMBIA GORGE
  
CITY           SKY/WX    TMP DP  RH WIND       PRES   REMARKS
STAMPEDE PASS  FOG       26  22  84 VRB3      29.62S VSB 3/4          
TROUTDALE, OR  LGT RAIN  37  35  92 E7        29.76R FOG              
HOOD RIVER, OR CLOUDY    30  30 100 CALM      29.75S FOG              
THE DALLES, OR CLOUDY    29  26  89 CALM      29.78S                  
$$

WAZ026-027-041>044-520-521-161200-
EAST SLOPES
  
CITY           SKY/WX    TMP DP  RH WIND       PRES   REMARKS
OMAK           CLOUDY    29  28  96 CALM      29.77S                  
WENATCHEE      CLOUDY    27  25  92 S3        29.78S                  
ELLENSBURG     CLOUDY    29  25  85 E3        29.74R FOG              
YAKIMA         CLOUDY    30  28  92 W5        29.76S FOG              
SUNNYSIDE ARPT LGT SNOW  29  29  99 CALM      29.78                   
YAKIMA TC      LGT SNOW  28  26  89 N5        29.73S                  
$$

WAZ028-034-035-161200-
COLUMBIA BASIN
  
CITY           SKY/WX    TMP DP  RH WIND       PRES   REMARKS
EPHRATA        CLOUDY    30  27  88 N10       29.77R WCI  21          
MOSES LAKE     CLOUDY    30  28  92 N5        29.78S                  
PASCO          CLOUDY    27  26  96 W3        29.82R FOG              
RICHLAND ARPT  CLOUDY    29  29  99 MISG      29.83R FOG              
HERMISTON, OR  CLOUDY    30  27  88 NE16      29.74F FOG     WCI  19  
$$

WAZ036>038-161200-
NORTHEAST WASHINGTON
  
CITY           SKY/WX    TMP DP  RH WIND       PRES   REMARKS
SPOKANE GEIGER FOG       27  26  96 SW3       29.71S VSB 1/2          
SPOKANE FELTS  CLOUDY    30  27  88 W5        29.74S                  
FAIRCHILD AFB  CLOUDY    26  26 100 CALM      29.70S FOG              
COEURDALENE,ID MOCLDY    25  23  92 SW3       29.72S                  
DEER PARK      CLOUDY    28  26  92 CALM      29.73R                  
$$

WAZ029>033-161200-
SOUTHEAST WASHINGTON
  
CITY           SKY/WX    TMP DP  RH WIND       PRES   REMARKS
PULLMAN        PTCLDY    24  22  91 NE5       29.74R                  
LEWISTON, ID   CLOUDY    30  28  92 E3        29.77R FOG              
WALLA WALLA    MIX PCPN  30  27  88 E12       29.75F WCI  20          
PENDLETON, OR  CLOUDY    37  28  70 E8        29.70S                  
$$